Weather History for Minden, LA

Change the Weather History Date:

Thursday, October 6, 2011

  Actual Average (KBAD) Record (KBAD)
Temperature  
Mean Temperature 74 °F -  
Max Temperature 89 °F 75 °F 90 °F (2007)
Min Temperature 59 °F 56 °F 42 °F (2010)
Cooling Degree Days 9    
Growing Degree Days 24 (Base 50)    
Moisture  
Dew Point 53 °F    
Average Humidity 51    
Maximum Humidity 73    
Minimum Humidity 29    
Precipitation  
Precipitation 0.00 in - - ()
Sea Level Pressure  
Sea Level Pressure 30.13 in    
Wind  
Wind Speed 4 mph ()    
Max Wind Speed 14 mph    
Max Gust Speed 23 mph    
Visibility 10.0 miles    
Events      
Averages and records for this station are not official NWS values.
T = Trace of Precipitation, MM = Missing Value Source: Averaged Metar Reports

Daily Weather History Graph

Daily Weather History Graph

Search for Another Location

Airport:

Trip Planner

Search our weather history database for the weather conditions in past years. The results will help you decide how hot, cold, wet, or windy it might be!

Date:

Astronomy

Oct. 06, 2011 Rise Set
Actual Time 7:10 AM CDT 6:51 PM CDT
Civil Twilight 6:45 AM CDT 7:16 PM CDT
Nautical Twilight 6:17 AM CDT 7:44 PM CDT
Astronomical Twilight 5:48 AM CDT 8:13 PM CDT
Moon 3:51 PM CDT (10/6) 2:15 AM CDT (10/6)
Length of Visible Light 12h 30m
Length of Day
11h 41m
Waxing Gibbous, 75% of the Moon is Illuminated
Oct 6
Waxing Gibbous
Oct 11
Full
Oct 19
Last Quarter
Oct 26
New
Nov 2
First Quarter

Hourly Weather History & Observations

Time (CDT) Temp. Heat Index Dew Point Humidity Pressure Visibility Wind Dir Wind Speed Gust Speed Precip Events Conditions
12:15 AM 64.4 °F - 46.4 °F 52% 30.13 in 10.0 mi Calm Calm - N/A   Clear
12:35 AM 64.4 °F - 48.2 °F 56% 30.13 in 10.0 mi Calm Calm - N/A   Clear
12:55 AM 64.4 °F - 46.4 °F 52% 30.12 in 10.0 mi ESE 3.5 mph - N/A   Clear
1:15 AM 64.4 °F - 46.4 °F 52% 30.12 in 10.0 mi ESE 3.5 mph - N/A   Clear
1:35 AM 64.4 °F - 46.4 °F 52% 30.12 in 10.0 mi ESE 3.5 mph - N/A   Clear
1:55 AM 64.4 °F - 46.4 °F 52% 30.12 in 10.0 mi ESE 3.5 mph - N/A   Clear
2:15 AM 64.4 °F - 48.2 °F 56% 30.13 in 10.0 mi Calm Calm - N/A   Clear
2:35 AM 62.6 °F - 48.2 °F 59% 30.13 in 10.0 mi Calm Calm - N/A   Clear
2:55 AM 60.8 °F - 50.0 °F 68% 30.13 in 10.0 mi Calm Calm - N/A   Clear
3:15 AM 62.6 °F - 48.2 °F 59% 30.12 in 10.0 mi ESE 3.5 mph - N/A   Clear
3:35 AM 60.8 °F - 50.0 °F 68% 30.12 in 10.0 mi Calm Calm - N/A   Clear
3:55 AM 62.6 °F - 50.0 °F 63% 30.13 in 10.0 mi East 3.5 mph - N/A   Clear
4:15 AM 60.8 °F - 50.0 °F 68% 30.12 in 10.0 mi East 3.5 mph - N/A   Clear
4:35 AM 60.8 °F - 50.0 °F 68% 30.13 in 10.0 mi East 3.5 mph - N/A   Clear
4:55 AM 59.0 °F - 50.0 °F 72% 30.13 in 10.0 mi Calm Calm - N/A   Clear
5:15 AM 60.8 °F - 50.0 °F 68% 30.13 in 10.0 mi East 3.5 mph - N/A   Clear
5:35 AM 62.6 °F - 50.0 °F 63% 30.14 in 10.0 mi East 3.5 mph - N/A   Clear
5:55 AM 60.8 °F - 50.0 °F 68% 30.14 in 10.0 mi East 3.5 mph - N/A   Clear
6:15 AM 60.8 °F - 50.0 °F 68% 30.14 in 10.0 mi ESE 3.5 mph - N/A   Clear
6:35 AM 62.6 °F - 51.8 °F 68% 30.15 in 10.0 mi Calm Calm - N/A   Clear
6:55 AM 62.6 °F - 51.8 °F 68% 30.16 in 10.0 mi East 3.5 mph - N/A   Clear
7:15 AM 60.8 °F - 51.8 °F 72% 30.16 in 10.0 mi Calm Calm - N/A   Clear
7:35 AM 60.8 °F - 51.8 °F 72% 30.17 in 10.0 mi Calm Calm - N/A   Clear
7:55 AM 60.8 °F - 51.8 °F 72% 30.16 in 10.0 mi Calm Calm - N/A   Clear
8:15 AM 64.4 °F - 53.6 °F 68% 30.17 in 10.0 mi East 3.5 mph - N/A   Clear
8:55 AM 68.0 °F - 57.2 °F 68% 30.17 in 10.0 mi ESE 3.5 mph - N/A   Clear
9:15 AM 68.0 °F - 59.0 °F 73% 30.17 in 10.0 mi SE 4.6 mph - N/A   Clear
9:35 AM 71.6 °F - 60.8 °F 69% 30.18 in 10.0 mi ESE 5.8 mph - N/A   Clear
9:55 AM 71.6 °F - 60.8 °F 69% 30.18 in 10.0 mi ESE 4.6 mph - N/A   Clear
10:15 AM 71.6 °F - 62.6 °F 73% 30.18 in 10.0 mi SE 3.5 mph - N/A   Clear
10:35 AM 73.4 °F - 62.6 °F 69% 30.18 in 10.0 mi SE 5.8 mph - N/A   Clear
10:55 AM 77.0 °F - 62.6 °F 61% 30.18 in 10.0 mi SE 9.2 mph - N/A   Clear
11:15 AM 78.8 °F - 59.0 °F 51% 30.17 in 10.0 mi SE 8.1 mph - N/A   Clear
11:35 AM 80.6 °F 80.8 °F 57.2 °F 45% 30.17 in 10.0 mi SE 10.4 mph 20.7 mph N/A   Clear
11:55 AM 82.4 °F 82.0 °F 57.2 °F 42% 30.17 in 10.0 mi SE 12.7 mph 18.4 mph N/A   Clear
12:15 PM 82.4 °F 82.0 °F 57.2 °F 42% 30.15 in 10.0 mi SE 13.8 mph 20.7 mph N/A   Clear
12:35 PM 86.0 °F 84.5 °F 55.4 °F 35% 30.15 in 10.0 mi ESE 12.7 mph 17.3 mph N/A   Clear
12:55 PM 86.0 °F 84.5 °F 55.4 °F 35% 30.14 in 10.0 mi ESE 10.4 mph 23.0 mph N/A   Clear
1:15 PM 87.8 °F 86.1 °F 55.4 °F 33% 30.13 in 10.0 mi South 11.5 mph - N/A   Clear
1:35 PM 87.8 °F 86.1 °F 55.4 °F 33% 30.12 in 10.0 mi SE 9.2 mph 16.1 mph N/A   Clear
1:55 PM 87.8 °F 86.1 °F 55.4 °F 33% 30.11 in 10.0 mi SSE 11.5 mph 17.3 mph N/A   Clear
2:15 PM 87.8 °F 85.7 °F 53.6 °F 31% 30.10 in 10.0 mi SSE 6.9 mph 17.3 mph N/A   Clear
2:35 PM 87.8 °F 85.7 °F 53.6 °F 31% 30.09 in 10.0 mi SSE 11.5 mph 16.1 mph N/A   Clear
2:55 PM 89.6 °F 87.3 °F 53.6 °F 29% 30.09 in 10.0 mi SSE 9.2 mph 19.6 mph N/A   Clear
3:15 PM 89.6 °F 87.3 °F 53.6 °F 29% 30.08 in 10.0 mi ESE 9.2 mph 18.4 mph N/A   Clear
3:35 PM 89.6 °F 87.3 °F 53.6 °F 29% 30.08 in 10.0 mi East 6.9 mph 20.7 mph N/A   Clear
3:55 PM 89.6 °F 87.3 °F 53.6 °F 29% 30.07 in 10.0 mi SSE 11.5 mph 16.1 mph N/A   Clear
4:15 PM 89.6 °F 87.3 °F 53.6 °F 29% 30.07 in 10.0 mi SE 10.4 mph 18.4 mph N/A   Clear
4:35 PM 89.6 °F 87.3 °F 53.6 °F 29% 30.07 in 10.0 mi SSE 10.4 mph 16.1 mph N/A   Clear
4:55 PM 89.6 °F 87.3 °F 53.6 °F 29% 30.07 in 10.0 mi SSE 5.8 mph - N/A   Clear
5:15 PM 87.8 °F 85.7 °F 53.6 °F 31% 30.07 in 10.0 mi SSE 8.1 mph 19.6 mph N/A   Clear
5:35 PM 87.8 °F - 51.8 °F 29% 30.07 in 10.0 mi ESE 9.2 mph 17.3 mph N/A   Clear
5:55 PM 87.8 °F - 51.8 °F 29% 30.07 in 10.0 mi SE 9.2 mph - N/A   Clear
6:15 PM 86.0 °F - 51.8 °F 31% 30.07 in 10.0 mi SE 5.8 mph - N/A   Clear
6:35 PM 84.2 °F 82.8 °F 53.6 °F 35% 30.07 in 10.0 mi SE 6.9 mph - N/A   Clear
6:55 PM 82.4 °F 81.4 °F 53.6 °F 37% 30.08 in 10.0 mi SE 6.9 mph - N/A   Clear
7:15 PM 80.6 °F 80.3 °F 53.6 °F 39% 30.08 in 10.0 mi ESE 4.6 mph - N/A   Clear
7:35 PM 80.6 °F 80.3 °F 53.6 °F 39% 30.09 in 10.0 mi ESE 4.6 mph - N/A   Clear
7:55 PM 78.8 °F - 53.6 °F 42% 30.09 in 10.0 mi ESE 5.8 mph - N/A   Clear
8:35 PM 78.8 °F - 53.6 °F 42% 30.11 in 10.0 mi ESE 4.6 mph - N/A   Clear
8:55 PM 77.0 °F - 53.6 °F 44% 30.11 in 10.0 mi ESE 6.9 mph - N/A   Clear
9:15 PM 77.0 °F - 53.6 °F 44% 30.12 in 10.0 mi ESE 8.1 mph - N/A   Clear
9:35 PM 77.0 °F - 55.4 °F 47% 30.12 in 10.0 mi ESE 6.9 mph - N/A   Clear
9:55 PM 75.2 °F - 55.4 °F 50% 30.13 in 10.0 mi SE 5.8 mph - N/A   Clear
10:15 PM 75.2 °F - 55.4 °F 50% 30.13 in 10.0 mi SE 5.8 mph - N/A   Clear
10:35 PM 73.4 °F - 55.4 °F 53% 30.14 in 10.0 mi SE 4.6 mph - N/A   Clear
10:55 PM 73.4 °F - 55.4 °F 53% 30.14 in 10.0 mi SE 5.8 mph - N/A   Clear
11:15 PM 71.6 °F - 55.4 °F 57% 30.14 in 10.0 mi ESE 4.6 mph - N/A   Clear
11:35 PM 71.6 °F - 57.2 °F 60% 30.14 in 10.0 mi ESE 5.8 mph - N/A   Clear
11:55 PM 71.6 °F - 57.2 °F 60% 30.14 in 10.0 mi Calm Calm - N/A   Clear